Skip Page Navigation
NASA JPL Caltech
NASA Logo - Jet Propulsion Laboratory + View the NASA Portal
+ Center for Near-Earth Object Studies
JPL Home Earth Solar System Stars & Galaxies Technology
JPL Solar System Dynamics
BODIES ORBITS EPHEMERIDES TOOLS PHYSICAL DATA DISCOVERY FAQ SITE MAP
JPL Small-Body Database Browser
Search: [ help ]  
72749 (2001 FX126)
Classification: Main-belt Asteroid          SPK-ID: 2072749
Ephemeris | Orbit Diagram | Orbital Elements | Mission Design | Physical Parameters | Discovery Circumstances | Close-Approach Data ]

[ show orbit diagram ]
Orbital Elements at Epoch 2459200.5 (2020-Dec-17.0) TDB
Reference: JPL 24 (heliocentric ecliptic J2000)
 Element Value Uncertainty (1-sigma)   Units 
e .05220816221326956 4.1024e-08  
a 3.172721172231409 2.4106e-08 au
q 3.007079230614077 1.2546e-07 au
i 22.60689232591528 6.9182e-06 deg
node 24.73684274359159 1.0511e-05 deg
peri 225.3899946098421 6.9154e-05 deg
M 119.6235319639073 6.9766e-05 deg
tp 2458514.600624701927
(2019-Jan-31.10062470)
0.00039919 TDB
period 2064.173921748173
5.65
2.3525e-05
6.441e-08
d
yr
n .1744039086082009 1.9876e-09 deg/d
Q 3.338363113848741 2.5364e-08 au
  Orbit Determination Parameters
   # obs. used (total)      1241  
   data-arc span      8125 days (22.25 yr)  
   first obs. used      1998-11-14  
   last obs. used      2021-02-11  
   planetary ephem.      DE441  
   SB-pert. ephem.      SB441-N16  
   condition code      0  
   norm. resid. RMS      .48535  
   source      ORB  
   producer      Otto Matic  
   solution date      2021-Apr-13 13:03:50  

Additional Information
 Earth MOID = 2.02505 au 
 Jupiter MOID = 1.67633 au 
 T_jup = 3.080 
[ show covariance matrix ]

Ephemeris | Orbit Diagram | Orbital Elements | Mission Design | Physical Parameters | Discovery Circumstances | Close-Approach Data ]

Physical Parameter Table
Parameter Symbol Value Units Sigma Reference Notes
absolute magnitude H 13.86   n/a MPCxxxxx  

72749 (2001 FX126)          Discovered 2001-Mar-26 by LINEAR at Socorro
Reference: 20031109/Numbers.arcLast Updated: 2004-04-19

[ show close-approach data ]
Ephemeris | Orbit Diagram | Orbital Elements | Mission Design | Physical Parameters | Discovery Circumstances | Close-Approach Data ]
ABOUT SSD CREDITS/AWARDS PRIVACY/COPYRIGHT GLOSSARY LINKS
FirstGov 2021-Jun-24 09:02 UT
(server date/time)  
NASA Home Page
Site Manager:   Ryan S. Park
Webmaster  Alan B. Chamberlin